Regional Weather Roundup
Issued by NWS

Home | Current Version | Previous Version | Text Only | Print | Product List | Glossary Off
Versions: 1 2 3 4 5 6 7 8 9 10 11 12 13 14 15 16 17 18 19 20 21 22 23 24 25 26 27

000
ASUS45 KCYS 250310
RWRWY

WYOMING REGIONAL WEATHER ROUNDUP
NATIONAL WEATHER SERVICE CHEYENNE WY
900 PM MDT TUE APR 24 2018

NOTE:  "FAIR" INDICATES FEW OR NO CLOUDS BELOW 12,000 FEET
WITH NO SIGNIFICANT WEATHER AND/OR OBSTRUCTIONS TO VISIBILITY.

WYZ001-250400-
YELLOWSTONE NATIONAL PARK

CITY           SKY/WX    TMP DP  RH WIND       PRES   REMARKS
LK YELLOWSTONE   N/A     26  17  68 NW3       30.43R
W YELLOWSTONE  NOT AVBL

$$
WYZ002>013-054>058-071-098>099-250400-
NORTHERN WYOMING

CITY           SKY/WX    TMP DP  RH WIND       PRES   REMARKS
JACKSON        FAIR      36  20  52 CALM      30.36R
CODY           FAIR      39  23  52 SE7       30.38R WCI  34
GREYBULL         N/A     45  30  55 S6        30.37S
WORLAND        FAIR      36  27  69 S6        30.39R WCI  31
SHERIDAN       FAIR      38  27  64 SW6       30.36S WCI  33
BUFFALO        FAIR      39  24  55 S3        30.39S
GILLETTE       FAIR      28  25  88 S5        30.38F WCI  23
HULETT         FAIR      37  27  65 CALM      30.41S
NEWCASTLE      FAIR      34  23  64 N7        30.42R WCI  28

$$
WYZ014>020-022>026-101>103-250400-
CENTRAL WYOMING

CITY           SKY/WX    TMP DP  RH WIND       PRES   REMARKS
BIG PINEY      FAIR      43  19  38 CALM      30.38R
PINEDALE       FAIR      36  23  60 W3        30.39R
DUBOIS         FAIR      36  21  55 S5        30.39R WCI  32
LANDER         FAIR      39  22  50 SW3       30.39R
RIVERTON       FAIR      39  21  48 E5        30.40S
CASPER         FAIR      30  23  75 SW3       30.42R
DOUGLAS        FAIR      33  24  69 CALM      30.42S

$$
WYZ021-027>030-104>119-250400-
SOUTHERN WYOMING

CITY           SKY/WX    TMP DP  RH WIND       PRES   REMARKS
EVANSTON       FAIR      42  20  41 E8        30.36R
KEMMERER       FAIR      39  18  41 E5        30.39R
FORT BRIDGER   CLEAR     37  18  44 E9        30.41R WCI  31
ROCK SPRINGS   FAIR      35  17  47 E10       30.41R WCI  27
DIXON          FAIR      34  19  53 N13       30.41R WCI  25
RAWLINS        FAIR      27  17  66 NE7       30.42R WCI  19
SARATOGA       FAIR      30  19  64 NW7       30.42R WCI  23
LARAMIE        CLOUDY    31  22  69 N9        30.39R WCI  23
CHEYENNE       MOCLDY    33  26  75 N8        30.41R WCI  26
TORRINGTON     CLOUDY    40  32  73 CALM      30.41R
PINE BLUFFS    CLOUDY    36  30  80 MISG      30.41R

$$




USA.gov is the U.S. government's official web portal to all federal, state and local government web resources and services.